Date String (YYYY-MM-DD hh:mm:ss) UTC,Instrument flags,Ambient pressure (hPa),Sample flow (lpm),Bypass flow (lpm),Sample temperature (°C),Ambient temperature (°C),ASC tube jacket temperature (°C),LED temperature (°C),Box temperature (°C),Sample RH (%),Span deviation,Mass concentration (μg/m³),Mass concentration (μg/m³),Mass concentration (μg/m³)
DateTimeUTC,F1_M11,P_M11,Q1_M11,Q2_M11,T1_M11,T2_M11,T3_M11,T4_M11,T5_M11,U1_M11,ZSPAN_M11,X0_M11,X2_M11,X1_M11
2022-01-04 13:00:00,,0818.7,5.01,0.00,22.1,21.2,00.0,31.3,23.7,06.6,0000.0,0001.75,0000.53,0000.45
2022-01-04 13:01:00,,0818.7,5.00,0.00,22.1,21.2,00.0,31.3,23.7,06.9,0000.0,0001.72,0000.52,0000.45
2022-01-04 13:02:00,,0818.5,4.99,0.00,22.1,21.2,00.0,31.3,23.7,07.1,0000.0,0001.69,0000.50,0000.44
2022-01-04 13:03:00,,0818.6,5.00,0.00,22.1,21.3,00.0,31.2,23.8,06.7,0000.0,0001.66,0000.49,0000.43
2022-01-04 13:04:00,,0818.7,5.00,0.00,22.2,22.0,00.0,31.3,24.0,06.9,0000.0,0001.66,0000.50,0000.43
2022-01-04 13:05:00,,0818.6,4.99,0.00,22.3,22.8,00.0,31.3,24.2,06.8,0000.0,0000.95,0000.51,0000.44
2022-01-04 13:06:00,,0818.6,4.99,0.00,22.4,22.9,00.0,31.3,24.4,07.0,0000.0,0000.72,0000.54,0000.46
2022-01-04 13:07:00,,0818.6,5.01,0.00,22.4,22.7,00.0,31.4,24.3,07.2,0000.0,0000.91,0000.53,0000.46
2022-01-04 13:08:00,,0818.5,5.00,0.00,22.4,22.4,00.0,31.4,24.1,07.3,0000.0,0002.36,0000.54,0000.46
2022-01-04 13:09:00,,0818.4,4.98,0.00,22.4,22.2,00.0,31.4,24.1,07.0,0000.0,0002.46,0000.57,0000.46
2022-01-04 13:10:00,,0818.3,4.99,0.00,22.3,21.9,00.0,31.3,24.0,06.9,0000.0,0002.58,0000.61,0000.46
2022-01-04 13:11:00,,0818.5,5.00,0.00,22.3,21.7,00.0,31.3,24.0,07.1,0000.0,0002.58,0000.61,0000.46
2022-01-04 13:12:00,,0818.6,5.01,0.00,22.3,21.6,00.0,31.3,23.9,07.3,0000.0,0002.63,0000.63,0000.46
2022-01-04 13:13:00,,0818.7,5.00,0.00,22.3,21.4,00.0,31.3,23.9,07.3,0000.0,0002.71,0000.67,0000.47
2022-01-04 13:14:00,,0818.6,4.99,0.00,22.2,21.3,00.0,31.3,23.8,07.3,0000.0,0002.77,0000.70,0000.47
2022-01-04 13:15:00,,0818.7,5.02,0.00,22.2,21.2,00.0,31.3,23.7,07.2,0000.0,0002.78,0000.71,0000.48
2022-01-04 13:16:00,,0818.8,4.99,0.00,22.1,21.2,00.0,31.3,23.7,07.2,0000.0,0002.75,0000.70,0000.47
2022-01-04 13:17:00,,0818.9,5.00,0.00,22.1,21.1,00.0,31.2,23.6,07.3,0000.0,0002.74,0000.68,0000.47
2022-01-04 13:18:00,,0818.8,4.98,0.00,22.0,21.0,00.0,31.2,23.6,07.2,0000.0,0002.41,0000.69,0000.47
2022-01-04 13:19:00,,0818.8,5.00,0.00,22.0,21.0,00.0,31.2,23.6,07.1,0000.0,0001.13,0000.69,0000.47
2022-01-04 13:20:00,,0818.9,5.01,0.00,22.0,21.1,00.0,31.2,23.6,07.1,0000.0,0001.07,0000.67,0000.47
2022-01-04 13:21:00,,0818.9,4.99,0.00,22.1,21.9,00.0,31.2,23.9,07.4,0000.0,0001.06,0000.64,0000.47
2022-01-04 13:22:00,,0818.9,5.01,0.00,22.2,22.7,00.0,31.3,24.1,07.3,0000.0,0001.12,0000.65,0000.47
2022-01-04 13:23:00,,0818.8,5.00,0.00,22.3,22.9,00.0,31.3,24.3,07.1,0000.0,0001.10,0000.65,0000.46
2022-01-04 13:24:00,,0818.9,5.01,0.00,22.4,22.7,00.0,31.3,24.2,07.1,0000.0,0001.07,0000.63,0000.46
2022-01-04 13:25:00,,0818.9,4.99,0.00,22.3,22.4,00.0,31.3,24.1,07.1,0000.0,0001.09,0000.61,0000.46
2022-01-04 13:26:00,,0819.0,5.00,0.00,22.3,22.2,00.0,31.3,24.0,06.9,0000.0,0001.18,0000.61,0000.46
2022-01-04 13:27:00,,0819.0,4.99,0.00,22.3,22.0,00.0,31.3,24.0,07.2,0000.0,0001.18,0000.61,0000.45
2022-01-04 13:28:00,,0818.9,5.00,0.00,22.2,21.8,00.0,31.3,23.9,07.3,0000.0,0001.16,0000.61,0000.45
2022-01-04 13:29:00,,0818.9,5.00,0.00,22.2,21.6,00.0,31.3,23.8,07.4,0000.0,0001.22,0000.61,0000.45
2022-01-04 13:30:00,,0818.9,4.99,0.00,22.2,21.5,00.0,31.3,23.8,07.2,0000.0,0001.20,0000.60,0000.45
2022-01-04 13:31:00,,0818.9,5.01,0.00,22.1,21.3,00.0,31.2,23.7,07.5,0000.0,0001.30,0000.62,0000.45
2022-01-04 13:32:00,,0818.9,5.00,0.00,22.1,21.2,00.0,31.2,23.6,07.3,0000.0,0001.34,0000.61,0000.45
2022-01-04 13:33:00,,0818.9,5.00,0.00,22.1,21.1,00.0,31.2,23.6,07.5,0000.0,0001.39,0000.64,0000.44
2022-01-04 13:34:00,,0818.9,5.00,0.00,22.0,21.1,00.0,31.2,23.6,07.6,0000.0,0001.41,0000.64,0000.44
2022-01-04 13:35:00,,0818.9,5.00,0.00,22.0,21.0,00.0,31.2,23.5,07.2,0000.0,0001.39,0000.62,0000.44
2022-01-04 13:36:00,,0818.9,5.01,0.00,22.0,21.1,00.0,31.2,23.5,07.4,0000.0,0001.35,0000.63,0000.44
2022-01-04 13:37:00,,0818.9,4.99,0.00,22.0,21.9,00.0,31.2,23.8,07.3,0000.0,0001.25,0000.61,0000.43
2022-01-04 13:38:00,,0818.9,5.01,0.00,22.2,22.8,00.0,31.2,24.1,07.1,0000.0,0001.67,0000.63,0000.44
2022-01-04 13:39:00,,0818.9,5.00,0.00,22.3,23.1,00.0,31.3,24.3,07.2,0000.0,0001.66,0000.63,0000.44
2022-01-04 13:40:00,,0819.0,4.99,0.00,22.4,22.8,00.0,31.3,24.2,07.4,0000.0,0001.55,0000.62,0000.44
2022-01-04 13:41:00,,0818.9,5.00,0.00,22.3,22.5,00.0,31.3,24.1,07.4,0000.0,0001.57,0000.63,0000.44
2022-01-04 13:42:00,,0818.9,4.99,0.00,22.3,22.2,00.0,31.3,24.0,07.3,0000.0,0001.45,0000.61,0000.44
2022-01-04 13:43:00,,0818.9,5.01,0.00,22.2,22.0,00.0,31.3,23.9,07.5,0000.0,0001.33,0000.61,0000.43
2022-01-04 13:44:00,,0818.9,4.99,0.00,22.2,21.8,00.0,31.3,23.9,07.2,0000.0,0001.27,0000.58,0000.43
2022-01-04 13:45:00,,0819.0,5.01,0.00,22.2,21.6,00.0,31.3,23.8,07.3,0000.0,0001.37,0000.57,0000.43
2022-01-04 13:46:00,,0819.0,4.99,0.00,22.1,21.5,00.0,31.2,23.7,07.4,0000.0,0001.65,0000.57,0000.43
2022-01-04 13:47:00,,0819.0,5.00,0.00,22.1,21.4,00.0,31.2,23.7,07.1,0000.0,0001.69,0000.57,0000.43
2022-01-04 13:48:00,,0819.1,5.00,0.00,22.0,21.3,00.0,31.2,23.6,07.2,0000.0,0001.66,0000.59,0000.44
2022-01-04 13:49:00,,0819.0,5.00,0.00,22.0,21.2,00.0,31.2,23.5,07.5,0000.0,0001.34,0000.60,0000.43
2022-01-04 13:50:00,,0819.0,5.00,0.00,22.0,21.1,00.0,31.2,23.5,07.3,0000.0,0001.38,0000.61,0000.43
2022-01-04 13:51:00,,0819.0,5.00,0.00,21.9,21.0,00.0,31.1,23.4,07.2,0000.0,0001.38,0000.61,0000.43
2022-01-04 13:52:00,,0818.9,4.99,0.00,21.9,21.1,00.0,31.1,23.5,07.2,0000.0,0001.34,0000.59,0000.43
2022-01-04 13:53:00,,0818.9,5.00,0.00,22.0,21.9,00.0,31.1,23.7,07.3,0000.0,0001.33,0000.58,0000.42
2022-01-04 13:54:00,,0819.0,4.99,0.00,22.2,22.7,00.0,31.2,24.1,07.2,0000.0,0001.32,0000.58,0000.42
2022-01-04 13:55:00,,0819.0,5.00,0.00,22.3,23.0,00.0,31.2,24.2,07.0,0000.0,0001.31,0000.58,0000.43
2022-01-04 13:56:00,,0818.9,5.00,0.00,22.3,22.7,00.0,31.2,24.1,06.9,0000.0,0001.15,0000.59,0000.43
2022-01-04 13:57:00,,0818.9,5.01,0.00,22.3,22.4,00.0,31.2,24.0,06.9,0000.0,0000.96,0000.57,0000.42
2022-01-04 13:58:00,,0819.0,4.99,0.00,22.2,22.1,00.0,31.2,23.9,07.0,0000.0,0000.97,0000.57,0000.42
2022-01-04 13:59:00,,0818.9,5.00,0.00,22.2,21.9,00.0,31.2,23.8,06.9,0000.0,0000.98,0000.56,0000.41
